OneWeb SL0445

operational
NORAD ID: 51639 Int'l Des: 2022-012 Owner: ONEWEBN Country: UK Constellation: oneweb
LEOCIRCULARPOLARONEWEB_TYPE

About OneWeb SL0445

Description loading...

Live Position

Loading 3D Globe...

Upcoming Passes

Altitude History

Altitude vs Time

uPlot chart will show altitude changes over time

Two-Line Element Set

1 51639U 22012T 25351.61580762 .00000388 00000-0 10749-2 0 9994
2 51639 87.8821 72.4382 0001566 108.5933 251.5365 13.10370046185560
Epoch: Dec 17, 2025 • Age: 12 hours

Current Status

Altitude 1224.1 km
Velocity 7.24 km/s
Sub-Earth Point 25.92°N, 125.97°E
Launch Date Feb 10, 2022
Age 3.8 years
Type internet

Technical Details

Classification Payload
Mass 148.00 kg
Dry Mass 140.00 kg
Total Mass 148.00 kg
Length 1.30 m
Diameter 1.00 m
Span 5.00 m
Shape Trapezoid+2 pan
Manufacturer ONEWUS
Bus Type ARROW
Phase Status In Orbit
Owner/State ONEWEBN/UK

Large Constellations

Loading constellations...